Showing default

ORBCOMM FM 113, 41185

Orbit data source: Space-Track

ORBCOMM FM 113, 41185 is a payload satellite owned by Orbcomm (US) in LEO that was launched on Tue, 22 Dec 2015 UTC via an FALCON 9 launch vehicle from the Air Force Eastern Test Range (AFETR). Payload-class satellites include a variety of spacecraft equipped with specific instruments for various scientific and technological missions. These include communications satellites like Starlink; space stations such as the ISS; scientific satellites like the Hubble; Earth observation satellites from companies like Planet Labs, Umbra, and HawkEye 360; GPS; miniature CubeSats for education and research; and military/defense satellites.

Loading next visibility...
Identifier
41185, 2015-081G
Orbit
LEO
Last TLE update
8 hours ago
Origin
Manufacturer
SNC Louisville
Mission
Operational Commercial Communications
Bus & Motor
SN-100A, Unknown motor
Mass
172 kg wet, 158 kg dry
Launch date (UTC)
2015-12-22 (10 years ago)
Launch vehicle
FALCON 9
Launch site
Air Force Eastern Test Range (AFETR)
Object type
Payload
Rocket body
Debris
Shape & HBR
Box + 1 Pan + 1 Ant, 13 m
Radar Cross Section
2.222 m², Medium (>0.1 m² and < 1m²)

Expand to show TLE details & history

TLE from 8 hours ago
0 ORBCOMM FM 113
1 41185U 15081G   25182.53708707  .00000482  00000-0  13977-3 0  9993
2 41185  46.9999 127.8525 0000828  22.3051 337.7870 14.58243440507741
Epoch: 2025-07-01T12:53Z
TLE epoch observation values (Epoch: 2025-07-01T12:53:24.322Z)
Latitude
-0.00006°
Longitude
14.66998°
Altitude
698.524 km
Speed
7.509 km/s
True Right ascension
08h 31m 24s
True Declination
0° 00' 00"
Sunlit
Object was in daylight at epoch
Visualization orbit readout
Latitude
13.83485°
Longitude
26.23785°
Altitude
697.742 km
Speed
7.51 km/s
Apparent Right ascension
10h 18m 32s
Apparent Declination
-49° 00' 11"
Sunlit
Object is in daylight
Visualization observer readout
Local Sidereal Time
08:52:08
Azimuth
166.022° S
Elevation
-0.944°
Doppler factor
1
Orbital elements
Apogee altitude
700.672 km
Perigee altitude
699.5 km
Semi-major axis
7,078.223 km
Eccentricity
0.00008
Inclination
46.9999°
RAAN
127.8525°
Arg. of periapsis
22.3051°
True anomaly
Unknown
Mean anomaly
337.787°
Eccentric anomaly
Unknown
Mean motion
3.64466 °/min
Orbital period
98.77 mins
BSTAR
0.00013977
Loading maneuver chart data...
Loading SW <> Apogee altitude chart data...
Loading historical data...
Loading historical data...
Loading historical data...
Loading historical data...
Loading historical data...
Loading historical data...
Loading historical data...

ORBCOMM FM 113 Visibility forecast

Observer location: undefined°, undefined°

Span
Click to sort rows by Start time (UTC) header in descending order
Start Az.
Max El. time (UTC)
Max El. Az.
Max El.
End time (UTC)
End Az.
8 mins2025-07-01 22:54:55.049Z205.098° SW2025-07-01 22:58:55.049Z147.679° SSE30.635°2025-07-01 23:02:55.049Z78.779° E
8 mins2025-07-02 00:38:55.049Z259.776° W2025-07-02 00:42:55.049Z1.919° NNE40.938°2025-07-02 00:46:55.049Z57.778° ENE
7 mins2025-07-02 02:23:55.049Z303.527° NW2025-07-02 02:26:55.049Z4.898° NNE30.505°2025-07-02 02:30:55.049Z63.13° ENE
7 mins2025-07-02 04:07:55.049Z310.865° NW2025-07-02 04:10:55.049Z20.006° NNE37.605°2025-07-02 04:14:55.049Z90.919° ESE
8 mins2025-07-02 05:50:55.049Z286.751° WNW2025-07-02 05:54:55.049Z194.175° SSW37.769°2025-07-02 05:58:55.049Z140.87° SSE
|